| time (UTC) | temp F | wind direction | speed MPH | gust MPH | rain 1hr in | rain 24hr in | rain mn in | humidity % | barometer mb |
| 20260506233053 | 61 | 33 | 3.0 | 7.0 | 0.00 | 0.00 | 0.00 | 86 | 1011.8 |
| 20260506231549 | 61 | 39 | 5.0 | 7.0 | 0.00 | 0.00 | 0.00 | 86 | 1011.7 |
| 20260506230100 | 61 | 37 | 3.0 | 5.0 | 0.00 | 0.00 | 0.00 | 86 | 1011.8 |
| 20260506224552 | 62 | 33 | 3.0 | 6.0 | 0.00 | 0.00 | 0.00 | 86 | 1011.8 |
| 20260506223051 | 62 | 29 | 3.0 | 5.0 | 0.00 | 0.00 | 0.00 | 86 | 1011.6 |
| 20260506221559 | 62 | 15 | 2.0 | 5.0 | 0.00 | 0.00 | 0.00 | 86 | 1011.7 |
| 20260506220052 | 63 | 32 | 2.0 | 5.0 | 0.00 | 0.00 | 0.00 | 84 | 1011.8 |
| 20260506214549 | 64 | 53 | 2.0 | 5.0 | 0.00 | 0.00 | 0.00 | 85 | 1011.9 |
| 20260506213056 | 64 | 87 | 3.0 | 7.0 | 0.00 | 0.00 | 0.00 | 84 | 1012.2 |
| 20260506211554 | 64 | 41 | 1.0 | 6.0 | 0.00 | 0.00 | 0.00 | 84 | 1012.4 |
| 20260506210051 | 64 | 92 | 2.0 | 5.0 | 0.00 | 0.00 | 0.00 | 84 | 1012.1 |
| 20260506204551 | 64 | 96 | 3.0 | 5.0 | 0.00 | 0.00 | 0.00 | 84 | 1012.0 |
| 20260506203054 | 64 | 54 | 3.0 | 6.0 | 0.00 | 0.00 | 0.00 | 84 | 1012.0 |
| 20260506201552 | 64 | 72 | 3.0 | 7.0 | 0.00 | 0.00 | 0.00 | 84 | 1011.8 |
| 20260506200047 | 64 | 66 | 4.0 | 8.0 | 0.00 | 0.00 | 0.00 | 84 | 1011.5 |
| 20260506194556 | 64 | 87 | 4.0 | 8.0 | 0.00 | 0.00 | 0.00 | 83 | 1011.3 |
| 20260506193052 | 64 | 98 | 3.0 | 8.0 | 0.00 | 0.00 | 0.00 | 83 | 1011.2 |
| 20260506191559 | 64 | 89 | 3.0 | 8.0 | 0.00 | 0.00 | 0.00 | 83 | 1011.0 |
| 20260506190052 | 64 | 103 | 5.0 | 8.0 | 0.00 | 0.00 | 0.00 | 83 | 1010.9 |
| 20260506184556 | 64 | 68 | 5.0 | 10.0 | 0.00 | 0.00 | 0.00 | 82 | 1010.7 |
| 20260506183101 | 65 | 79 | 7.0 | 13.0 | 0.00 | 0.00 | 0.00 | 82 | 1010.7 |
| 20260506181603 | 65 | 72 | 8.0 | 13.0 | 0.00 | 0.00 | 0.00 | 81 | 1010.6 |
| 20260506180054 | 65 | 100 | 5.0 | 14.0 | 0.00 | 0.00 | 0.00 | 81 | 1010.6 |
| 20260506174551 | 65 | 124 | 6.0 | 12.0 | 0.00 | 0.00 | 0.00 | 80 | 1010.6 |
| 20260506173119 | 66 | 70 | 6.0 | 14.0 | 0.00 | 0.00 | 0.00 | 80 | 1010.7 |
| 20260506171549 | 66 | 117 | 8.0 | 18.0 | 0.00 | 0.00 | 0.00 | 79 | 1010.8 |
| 20260506170104 | 66 | 85 | 10.0 | 15.0 | 0.00 | 0.00 | 0.00 | 77 | 1010.5 |
| 20260506164552 | 66 | 116 | 10.0 | 17.0 | 0.00 | 0.00 | 0.00 | 78 | 1010.4 |
| 20260506163059 | 66 | 76 | 8.0 | 18.0 | 0.00 | 0.00 | 0.00 | 77 | 1010.5 |
| 20260506161555 | 66 | 113 | 11.0 | 17.0 | 0.00 | 0.00 | 0.00 | 78 | 1010.3 |
| 20260506160059 | 67 | 76 | 9.0 | 16.0 | 0.00 | 0.00 | 0.00 | 76 | 1010.6 |
| 20260506154610 | 67 | 85 | 9.0 | 18.0 | 0.00 | 0.00 | 0.00 | 76 | 1010.1 |
| 20260506153059 | 67 | 121 | 10.0 | 20.0 | 0.00 | 0.00 | 0.00 | 77 | 1010.4 |
| 20260506151554 | 67 | 148 | 10.0 | 20.0 | 0.00 | 0.00 | 0.00 | 75 | 1010.4 |
| 20260506150051 | 67 | 95 | 10.0 | 20.0 | 0.00 | 0.00 | 0.00 | 75 | 1010.5 |
| 20260506144555 | 67 | 44 | 8.0 | 19.0 | 0.00 | 0.00 | 0.00 | 74 | 1010.7 |
| 20260506143051 | 68 | 70 | 11.0 | 16.0 | 0.00 | 0.00 | 0.00 | 73 | 1010.9 |
| 20260506141549 | 67 | 91 | 8.0 | 17.0 | 0.00 | 0.00 | 0.00 | 75 | 1011.0 |
| 20260506140048 | 67 | 74 | 10.0 | 19.0 | 0.00 | 0.00 | 0.00 | 74 | 1011.1 |
| 20260506134552 | 67 | 94 | 13.0 | 22.0 | 0.00 | 0.00 | 0.00 | 76 | 1010.9 |
| 20260506133116 | 68 | 110 | 11.0 | 21.0 | 0.00 | 0.00 | 0.00 | 75 | 1011.1 |
| 20260506131552 | 68 | 72 | 12.0 | 20.0 | 0.00 | 0.00 | 0.00 | 76 | 1011.3 |
| 20260506130110 | 67 | 129 | 11.0 | 20.0 | 0.00 | 0.00 | 0.00 | 76 | 1011.3 |
| 20260506124551 | 68 | 142 | 10.0 | 17.0 | 0.00 | 0.00 | 0.00 | 75 | 1011.3 |
| 20260506123047 | 67 | 125 | 12.0 | 18.0 | 0.00 | 0.00 | 0.00 | 78 | 1011.3 |
| 20260506121552 | 68 | 186 | 10.0 | 19.0 | 0.00 | 0.00 | 0.00 | 77 | 1011.4 |
| 20260506120054 | 68 | 101 | 10.0 | 17.0 | 0.00 | 0.00 | 0.00 | 76 | 1011.4 |
| 20260506114553 | 68 | 147 | 11.0 | 19.0 | 0.00 | 0.00 | 0.00 | 73 | 1011.6 |
| 20260506113048 | 68 | 58 | 10.0 | 17.0 | 0.00 | 0.00 | 0.00 | 73 | 1011.8 |
| 20260506111547 | 68 | 45 | 10.0 | 21.0 | 0.00 | 0.00 | 0.00 | 75 | 1011.6 |
| 20260506110054 | 68 | 129 | 8.0 | 19.0 | 0.00 | 0.00 | 0.00 | 74 | 1011.8 |
| 20260506104614 | 68 | 103 | 9.0 | 17.0 | 0.00 | 0.00 | 0.00 | 75 | 1011.9 |
| 20260506103103 | 68 | 48 | 10.0 | 16.0 | 0.00 | 0.00 | 0.00 | 72 | 1011.8 |
| 20260506101551 | 69 | 70 | 8.0 | 18.0 | 0.00 | 0.00 | 0.00 | 72 | 1011.9 |
| 20260506100051 | 68 | 128 | 9.0 | 17.0 | 0.00 | 0.00 | 0.00 | 72 | 1012.0 |
| 20260506094553 | 68 | 13 | 8.0 | 15.0 | 0.00 | 0.00 | 0.00 | 71 | 1011.9 |
| 20260506093052 | 68 | 68 | 7.0 | 14.0 | 0.00 | 0.00 | 0.00 | 71 | 1011.8 |
| 20260506091548 | 68 | 41 | 7.0 | 16.0 | 0.00 | 0.00 | 0.00 | 70 | 1011.6 |
| 20260506090051 | 68 | 51 | 8.0 | 15.0 | 0.00 | 0.00 | 0.00 | 69 | 1011.3 |
| 20260506084551 | 68 | 79 | 6.0 | 14.0 | 0.00 | 0.00 | 0.00 | 71 | 1011.4 |
| 20260506083051 | 68 | 47 | 5.0 | 13.0 | 0.00 | 0.00 | 0.00 | 70 | 1011.4 |
| 20260506081557 | 67 | 53 | 7.0 | 11.0 | 0.00 | 0.00 | 0.00 | 74 | 1011.4 |
| 20260506073056 | 66 | 341 | 2.0 | 7.0 | 0.00 | 0.00 | 0.00 | 77 | 1011.3 |
| 20260506071608 | 65 | 49 | 3.0 | 8.0 | 0.00 | 0.00 | 0.00 | 77 | 1011.2 |
| 20260506061556 | 61 | 8 | 1.0 | 4.0 | 0.00 | 0.00 | 0.00 | 83 | 1011.2 |
| 20260506044607 | 58 | 21 | 6.0 | 9.0 | 0.00 | 0.00 | 0.00 | 79 | 1010.3 |
| 20260506043056 | 58 | 32 | 4.0 | 5.0 | 0.00 | 0.00 | 0.00 | 80 | 1010.4 |
| 20260506041556 | 59 | 355 | 2.0 | 3.0 | 0.00 | 0.00 | 0.00 | 80 | 1010.3 |
| 20260506040053 | 59 | 0 | 0.0 | 0.0 | 0.00 | 0.00 | 0.00 | 83 | 1010.2 |
| 20260506034552 | 59 | 0 | 0.0 | 2.0 | 0.00 | 0.00 | 0.00 | 84 | 1010.3 |
| 20260506033053 | 59 | 0 | 2.0 | 4.0 | 0.00 | 0.00 | 0.00 | 85 | 1010.3 |
| 20260506031557 | 60 | 0 | 0.0 | 1.0 | 0.00 | 0.00 | 0.00 | 84 | 1010.3 |
| 20260506030056 | 60 | 265 | 0.0 | 3.0 | 0.00 | 0.00 | 0.00 | 84 | 1010.2 |
| 20260506024552 | 60 | 272 | 0.0 | 3.0 | 0.00 | 0.00 | 0.00 | 84 | 1010.1 |
| 20260506023050 | 60 | 0 | 0.0 | 3.0 | 0.00 | 0.00 | 0.00 | 84 | 1010.0 |
| 20260506021556 | 60 | 0 | 0.0 | 2.0 | 0.00 | 0.00 | 0.00 | 86 | 1010.1 |
| 20260506020044 | 59 | 319 | 0.0 | 2.0 | 0.00 | 0.00 | 0.00 | 88 | 1010.2 |
| 20260506014553 | 60 | 336 | 0.0 | 1.0 | 0.00 | 0.00 | 0.00 | 86 | 1010.2 |
| 20260506013052 | 60 | 336 | 0.0 | 2.0 | 0.00 | 0.00 | 0.00 | 85 | 1010.2 |
| 20260506011553 | 60 | 349 | 2.0 | 3.0 | 0.00 | 0.00 | 0.00 | 83 | 1010.3 |
| 20260506010057 | 61 | 0 | 0.0 | 0.0 | 0.00 | 0.00 | 0.00 | 83 | 1010.4 |
| 20260506004551 | 62 | 0 | 0.0 | 2.0 | 0.00 | 0.00 | 0.00 | 78 | 1010.4 |
| 20260506003059 | 62 | 27 | 2.0 | 4.0 | 0.00 | 0.00 | 0.00 | 78 | 1010.3 |
| 20260506001605 | 62 | 22 | 2.0 | 9.0 | 0.00 | 0.00 | 0.00 | 78 | 1010.5 |
| 20260506000054 | 63 | 25 | 5.0 | 8.0 | 0.00 | 0.00 | 0.00 | 80 | 1010.4 |
| 20260505234609 | 62 | 82 | 5.0 | 9.0 | 0.00 | 0.00 | 0.00 | 84 | 1010.4 |